Last updated on Wed Dec 07 2022 00:02:08 GMT+0000 (Coordinated Universal Time)

1 47853U 98067RZ 22340.59050543 .00012274 00000+0 16979-3 0 9999 2 47853 51.6389 190.6624 0001200 239.5428 120.5446 15.57547369 98703
UTC large
Height (km)
Speed (km/s)
/
Latitude / Longitude
Inclination (degrees)
Orbital Period (minutes)
Azimuth
Elevation
Range (km)
Doppler Factor

Next 0 passes for location: London (51.5072 / 0.1276)

Sorry there are no passes over London.